Weather History for Edinburg, TX

Change the Weather History Date:

Saturday, June 22, 2013

  Actual Average (KMFE) Record (KMFE)
Temperature  
Mean Temperature 88 °F 86 °F  
Max Temperature 98 °F 97 °F 101 °F (2003)
Min Temperature 78 °F 76 °F 69 °F (1961)
Degree Days  
Heating Degree Days 0 0  
Month to date heating degree days 0  
Since 1 June heating degree days 0  
Since 1 July heating degree days 579  
Cooling Degree Days 23 21  
Month to date cooling degree days 456  
Year to date cooling degree days 1711  
Since 1 June cooling degree days 456  
Growing Degree Days 38 (Base 50)    
Moisture  
Dew Point 69 °F    
Average Humidity 58    
Maximum Humidity 89    
Minimum Humidity 27    
Precipitation  
Precipitation 0.00 in 0.09 in 2.50 in (2011)
Month to date precipitation 1.87  
Year to date precipitation 8.65  
Sea Level Pressure  
Sea Level Pressure 29.97 in    
Wind  
Wind Speed 10 mph (SE)    
Max Wind Speed 20 mph    
Max Gust Speed 29 mph    
Visibility 6 miles    
Events      
T = Trace of Precipitation, MM = Missing Value Source: NWS Daily Summary

Daily Weather History Graph

Daily Weather History Graph

Search for Another Location

Airport:

Trip Planner

Search our weather history database for the weather conditions in past years. The results will help you decide how hot, cold, wet, or windy it might be!

Date:

Astronomy

Jun. 22, 2013 Rise Set
Actual Time 6:40 AM CDT 8:28 PM CDT
Civil Twilight 6:14 AM CDT 8:54 PM CDT
Nautical Twilight 5:42 AM CDT 9:26 PM CDT
Astronomical Twilight 5:09 AM CDT 9:59 PM CDT
Moon 7:50 PM CDT (6/22) 5:49 AM CDT (6/22)
Length of Visible Light 14h 40m
Length of Day
13h 48m
Waxing Gibbous, 99% of the Moon is Illuminated
Jun 22
Waxing Gibbous
Jun 23
Full
Jun 29
Last Quarter
Jul 8
New
Jul 15
First Quarter

Hourly Weather History & Observations

Time (CDT) Temp. Heat Index Dew Point Humidity Pressure Visibility Wind Dir Wind Speed Gust Speed Precip Events Conditions
12:15 AM 82.6 °F 88.8 °F 74.1 °F 75% 30.00 in 7.0 mi SE 10.4 mph - N/A   Clear
12:35 AM 82.2 °F 88.5 °F 74.3 °F 77% 30.00 in 7.0 mi SE 8.1 mph - N/A   Clear
12:55 AM 81.7 °F 87.6 °F 74.3 °F 78% 30.00 in 7.0 mi SE 6.9 mph - N/A   Clear
1:15 AM 81.5 °F 87.4 °F 74.5 °F 79% 29.99 in 7.0 mi SE 6.9 mph - N/A   Clear
1:35 AM 81.1 °F 87.0 °F 74.7 °F 81% 30.00 in 7.0 mi SE 6.9 mph - N/A   Clear
1:55 AM 80.8 °F 86.3 °F 74.7 °F 82% 30.00 in 7.0 mi SE 5.8 mph - N/A   Clear
2:15 AM 80.4 °F 85.6 °F 74.7 °F 83% 29.99 in 7.0 mi SE 5.8 mph - N/A   Clear
2:35 AM 80.1 °F 84.8 °F 74.7 °F 83% 30.00 in 7.0 mi SE 4.6 mph - N/A   Clear
2:55 AM 79.9 °F - 74.8 °F 85% 30.00 in 7.0 mi SE 4.6 mph - N/A   Clear
3:15 AM 79.9 °F - 74.8 °F 85% 30.00 in 7.0 mi SE 4.6 mph - N/A   Clear
3:35 AM 79.7 °F - 75.0 °F 86% 29.99 in 7.0 mi SE 5.8 mph - N/A   Scattered Clouds
3:55 AM 79.9 °F - 75.4 °F 86% 29.99 in 7.0 mi SSE 5.8 mph - N/A   Mostly Cloudy
4:15 AM 80.8 °F 86.9 °F 75.9 °F 85% 29.99 in 7.0 mi SE 3.5 mph - N/A   Overcast
4:35 AM 81.0 °F 87.3 °F 75.9 °F 85% 29.99 in 7.0 mi SSE 5.8 mph - N/A   Overcast
4:55 AM 80.6 °F 86.4 °F 75.7 °F 85% 29.99 in 7.0 mi SE 5.8 mph - N/A   Mostly Cloudy
5:15 AM 80.1 °F 85.4 °F 75.7 °F 87% 29.99 in 5.0 mi SE 6.9 mph - N/A   Scattered Clouds
5:35 AM 79.7 °F - 75.4 °F 87% 29.99 in 5.0 mi SE 4.6 mph - N/A   Haze
5:55 AM 79.3 °F - 75.4 °F 88% 29.99 in 5.0 mi SE 5.8 mph - N/A   Clear
6:15 AM 79.0 °F - 75.2 °F 88% 29.99 in 5.0 mi NNE 4.6 mph - N/A   Clear
6:35 AM 78.8 °F - 75.2 °F 89% 29.98 in 5.0 mi SSE 5.8 mph - N/A   Clear
6:55 AM 78.8 °F - 75.2 °F 89% 29.98 in 5.0 mi SSE 5.8 mph - N/A   Clear
7:15 AM 79.0 °F - 75.0 °F 88% 29.98 in 5.0 mi SE 4.6 mph - N/A   Clear
7:35 AM 79.5 °F - 74.5 °F 84% 29.98 in 7.0 mi SSE 5.8 mph - N/A   Clear
7:55 AM 80.6 °F 85.5 °F 73.8 °F 80% 29.99 in 7.0 mi SSE 8.1 mph - N/A   Clear
8:15 AM 81.9 °F 87.3 °F 73.2 °F 75% 29.99 in 10.0 mi SSE 11.5 mph - N/A   Clear
8:35 AM 82.8 °F 88.4 °F 73.0 °F 72% 29.99 in 10.0 mi SSE 9.2 mph - N/A   Clear
8:55 AM 83.8 °F 89.8 °F 72.5 °F 69% 30.00 in 10.0 mi SSE 11.5 mph - N/A   Clear
9:15 AM 85.1 °F 91.1 °F 72.1 °F 65% 30.01 in 10.0 mi SSE 13.8 mph 19.6 mph N/A   Clear
9:35 AM 85.5 °F 91.1 °F 71.8 °F 63% 30.01 in 7.0 mi SSE 13.8 mph 19.6 mph N/A   Clear
9:55 AM 86.9 °F 92.5 °F 71.1 °F 59% 30.01 in 5.0 mi SSE 15.0 mph - N/A   Haze
10:15 AM 87.8 °F 93.0 °F 70.2 °F 56% 30.01 in 5.0 mi SSE 13.8 mph 20.7 mph N/A   Haze
10:35 AM 89.4 °F 93.5 °F 68.5 °F 50% 30.01 in 4.0 mi SSE 15.0 mph 23.0 mph N/A   Haze
10:55 AM 89.8 °F 93.8 °F 68.4 °F 49% 30.01 in 5.0 mi SSE 18.4 mph 23.0 mph N/A   Haze
11:15 AM 91.2 °F 95.0 °F 68.0 °F 46% 30.01 in 5.0 mi SSE 15.0 mph 21.9 mph N/A   Haze
11:35 AM 91.9 °F 95.0 °F 66.7 °F 43% 30.02 in 5.0 mi SSE 16.1 mph 23.0 mph N/A   Haze
11:55 AM 93.2 °F 96.2 °F 66.6 °F 41% 30.01 in 5.0 mi SE 18.4 mph 21.9 mph N/A   Haze
12:15 PM 94.3 °F 97.2 °F 65.5 °F 39% 30.00 in 5.0 mi SE 18.4 mph 21.9 mph N/A   Haze
12:35 PM 94.6 °F 97.8 °F 65.8 °F 39% 30.00 in 7.0 mi SSE 15.0 mph 20.7 mph N/A   Clear
12:55 PM 95.0 °F 97.0 °F 63.9 °F 36% 30.00 in 7.0 mi SSE 12.7 mph 20.7 mph N/A   Scattered Clouds
1:15 PM 95.0 °F 95.6 °F 62.1 °F 33% 29.99 in 5.0 mi South 15.0 mph 23.0 mph N/A   Haze
1:55 PM 96.8 °F 97.5 °F 61.7 °F 31% 29.98 in 4.0 mi SSE 16.1 mph 20.7 mph N/A   Haze
2:15 PM 97.3 °F 97.9 °F 61.3 °F 30% 29.97 in 5.0 mi SSE 15.0 mph 23.0 mph N/A   Haze
2:35 PM 97.9 °F 98.8 °F 61.2 °F 30% 29.96 in 5.0 mi SE 16.1 mph 26.5 mph N/A   Haze
2:55 PM 98.1 °F 98.6 °F 61.0 °F 29% 29.96 in 7.0 mi SSE 13.8 mph 24.2 mph N/A   Clear
3:15 PM 98.1 °F 98.1 °F 59.4 °F 28% 29.95 in 5.0 mi SSE 16.1 mph - N/A   Haze
3:35 PM 98.4 °F 98.2 °F 58.8 °F 27% 29.94 in 5.0 mi SE 13.8 mph 28.8 mph N/A   Haze
3:55 PM 98.6 °F 100.0 °F 62.2 °F 30% 29.93 in 7.0 mi SE 15.0 mph 24.2 mph N/A   Scattered Clouds
4:15 PM 97.9 °F 99.3 °F 62.6 °F 31% 29.92 in 4.0 mi SSE 12.7 mph 21.9 mph N/A   Haze
4:35 PM 97.9 °F 98.3 °F 60.8 °F 29% 29.91 in 5.0 mi SE 17.3 mph 25.3 mph N/A   Haze
4:55 PM 97.7 °F 98.5 °F 61.5 °F 30% 29.91 in 5.0 mi SE 17.3 mph 23.0 mph N/A   Haze
5:15 PM 97.3 °F 98.9 °F 62.6 °F 32% 29.90 in 5.0 mi SE 17.3 mph 23.0 mph N/A   Haze
5:35 PM 96.8 °F 97.5 °F 61.9 °F 31% 29.90 in 5.0 mi SE 18.4 mph 27.6 mph N/A   Haze
5:55 PM 96.4 °F 96.1 °F 59.4 °F 29% 29.90 in 5.0 mi SE 12.7 mph - N/A   Haze
6:15 PM 95.9 °F 94.9 °F 58.3 °F 28% 29.89 in 5.0 mi SSE 15.0 mph - N/A   Haze
6:35 PM 95.5 °F 95.6 °F 60.6 °F 31% 29.89 in 7.0 mi SSE 12.7 mph 21.9 mph N/A   Clear
6:55 PM 94.3 °F 94.5 °F 61.0 °F 33% 29.89 in 7.0 mi SE 19.6 mph 23.0 mph N/A   Clear
7:15 PM 93.6 °F 95.0 °F 63.9 °F 37% 29.89 in 5.0 mi SE 19.6 mph 23.0 mph N/A   Haze
7:35 PM 92.1 °F 94.0 °F 64.4 °F 40% 29.90 in 5.0 mi SE 13.8 mph 23.0 mph N/A   Haze
7:55 PM 91.0 °F 93.0 °F 65.1 °F 42% 29.90 in 5.0 mi SE 17.3 mph 20.7 mph N/A   Haze
8:15 PM 89.6 °F 91.1 °F 64.6 °F 43% 29.90 in 7.0 mi SE 15.0 mph 21.9 mph N/A   Clear
8:35 PM 88.7 °F 90.4 °F 64.6 °F 45% 29.90 in 5.0 mi SE 15.0 mph - N/A   Haze
8:55 PM 87.4 °F 89.5 °F 65.5 °F 48% 29.91 in 7.0 mi SE 12.7 mph - N/A   Clear
9:15 PM 86.5 °F 89.0 °F 66.2 °F 51% 29.92 in 7.0 mi SE 11.5 mph - N/A   Clear
9:35 PM 86.0 °F 88.5 °F 66.6 °F 52% 29.93 in 10.0 mi SE 12.7 mph - N/A   Clear
9:55 PM 84.9 °F 87.9 °F 67.6 °F 56% 29.93 in 7.0 mi SE 11.5 mph - N/A   Clear
10:15 PM 83.8 °F 87.0 °F 68.4 °F 59% 29.94 in 7.0 mi SE 11.5 mph - N/A   Clear
10:35 PM 83.3 °F 86.9 °F 69.1 °F 62% 29.95 in 7.0 mi SE 11.5 mph - N/A   Clear
10:55 PM 82.4 °F 86.3 °F 69.8 °F 66% 29.96 in 5.0 mi SE 9.2 mph - N/A   Haze
11:15 PM 81.9 °F 85.8 °F 70.2 °F 68% 29.97 in 7.0 mi SE 11.5 mph - N/A   Clear
11:35 PM 81.5 °F 85.5 °F 71.1 °F 70% 29.97 in 7.0 mi SE 10.4 mph - N/A   Clear
11:55 PM 80.8 °F 84.7 °F 71.6 °F 73% 29.97 in 7.0 mi SSE 8.1 mph - N/A   Clear